H1 CPF 2 NER 2024 6 23 9 175 01 glonass145 H2 2213001 9145 54031 2024 6 23 0 0 0 2024 6 26 23 45 0 900 1 1 0 0 0 1 H9 10 0 60484 0.00000 0 6784149.542 24004120.449 5393613.270 10 0 60484 900.00000 0 6573242.461 23164525.337 8455082.008 10 0 60484 1800.00000 0 6132372.181 22017486.214 11352534.801 10 0 60484 2700.00000 0 5431044.888 20612564.203 14029757.782 10 0 60484 3600.00000 0 4449691.023 19006504.572 16434799.983 10 0 60484 4500.00000 0 3180751.835 17260873.087 18520978.505 10 0 60484 5400.00000 0 1629262.479 15439510.148 20247782.252 10 0 60484 6300.00000 0 -187094.191 13605908.842 21581657.054 10 0 60484 7200.00000 0 -2238466.917 11820626.125 22496657.253 10 0 60484 8100.00000 0 -4483830.092 10138834.824 22974951.356 10 0 60484 9000.00000 0 -6872452.836 8608118.219 23007172.028 10 0 60484 9900.00000 0 -9345783.529 7266598.903 22592603.506 10 0 60484 10800.00000 0 -11839672.900 6141479.674 21739202.484 10 0 60484 11700.00000 0 -14286844.458 5248057.123 20463451.512 10 0 60484 12600.00000 0 -16619510.453 4589248.926 18790047.037 10 0 60484 13500.00000 0 -18772025.119 4155654.400 16751427.350 10 0 60484 14400.00000 0 -20683465.028 3926145.549 14387148.757 10 0 60484 15300.00000 0 -22300028.886 3868963.453 11743121.397 10 0 60484 16200.00000 0 -23577156.350 3943273.483 8870719.005 10 0 60484 17100.00000 0 -24481276.880 4101113.217 5825779.651 10 0 60484 18000.00000 0 -24991114.904 4289650.105 2667516.940 10 0 60484 18900.00000 0 -25098496.234 4453652.557 -542636.778 10 0 60484 19800.00000 0 -24808621.641 4538068.811 -3742232.094 10 0 60484 20700.00000 0 -24139796.094 4490603.238 -6869024.846 10 0 60484 21600.00000 0 -23122625.304 4264179.747 -9862194.340 10 0 60484 22500.00000 0 -21798713.843 3819186.734 -12663532.891 10 0 60484 23400.00000 0 -20218920.240 3125407.437 -15218582.710 10 0 60484 24300.00000 0 -18441243.143 2163553.030 -17477697.488 10 0 60484 25200.00000 0 -16528428.039 926332.780 -19397007.776 10 0 60484 26100.00000 0 -14545395.556 -580984.616 -20939271.415 10 0 60484 27000.00000 0 -12556599.509 -2340542.853 -22074592.817 10 0 60484 27900.00000 0 -10623425.341 -4322404.815 -22780997.719 10 0 60484 28800.00000 0 -8801737.518 -6485573.688 -23044852.902 10 0 60484 29700.00000 0 -7139677.745 -8779486.227 -22861123.512 10 0 60484 30600.00000 0 -5675805.010 -11145916.426 -22233463.679 10 0 60484 31500.00000 0 -4437653.913 -13521210.737 -21174139.277 10 0 60484 32400.00000 0 -3440770.094 -15838762.298 -19703784.738 10 0 60484 33300.00000 0 -2688261.532 -18031621.768 -17850998.858 10 0 60484 34200.00000 0 -2170882.959 -20035136.607 -15651787.522 10 0 60484 35100.00000 0 -1867648.357 -21789509.480 -13148864.039 10 0 60484 36000.00000 0 -1746944.505 -23242169.769 -10390820.483 10 0 60484 36900.00000 0 -1768097.641 -24349859.791 -7431185.896 10 0 60484 37800.00000 0 -1883326.369 -25080349.180 -4327389.418 10 0 60484 38700.00000 0 -2039997.785 -25413706.265 -1139648.236 10 0 60484 39600.00000 0 -2183091.145 -25343073.686 2070198.132 10 0 60484 40500.00000 0 -2257764.639 -24874916.153 5239884.728 10 0 60484 41400.00000 0 -2211916.581 -24028730.238 8307926.058 10 0 60484 42300.00000 0 -1998632.552 -22836228.514 11214805.671 10 0 60484 43200.00000 0 -1578414.810 -21340032.277 13904127.482 10 0 60484 44100.00000 0 -921099.471 -19591927.466 16323706.707 10 0 60484 45000.00000 0 -7379.981 -17650756.569 18426579.480 10 0 60484 45900.00000 0 1170128.103 -15580034.286 20171911.932 10 0 60484 46800.00000 0 2606326.901 -13445386.102 21525791.450 10 0 60484 47700.00000 0 4283605.454 -11311916.160 22461885.102 10 0 60484 48600.00000 0 6172341.222 -9241613.635 22961952.682 10 0 60484 49500.00000 0 8231914.620 -7290905.121 23016204.557 10 0 60484 50400.00000 0 10412195.861 -5508454.508 22623497.210 10 0 60484 51300.00000 0 12655443.732 -3933301.523 21791362.426 10 0 60484 52200.00000 0 14898538.587 -2593416.074 20535868.952 10 0 60484 53100.00000 0 17075457.604 -1504728.363 18881318.650 10 0 60484 54000.00000 0 19119889.930 -670674.896 16859782.205 10 0 60484 54900.00000 0 20967883.058 -82278.994 14510482.560 10 0 60484 55800.00000 0 22560410.004 281237.986 11879037.356 10 0 60484 56700.00000 0 23845749.698 451340.947 9016574.523 10 0 60484 57600.00000 0 24781580.513 468608.465 5978737.916 10 0 60484 58500.00000 0 25336698.523 380770.438 2824602.410 10 0 60484 59400.00000 0 25492287.816 240439.826 -384480.133 10 0 60484 60300.00000 0 25242688.919 102635.475 -3586080.941 10 0 60484 61200.00000 0 24595632.706 22202.095 -6717916.244 10 0 60484 62100.00000 0 23571929.810 51237.895 -9719066.318 10 0 60484 63000.00000 0 22204628.704 236640.041 -12531167.051 10 0 60484 63900.00000 0 20537678.186 617873.032 -15099549.981 10 0 60484 64800.00000 0 18624150.921 1225055.427 -17374308.139 10 0 60484 65700.00000 0 16524103.124 2077446.687 -19311266.633 10 0 60484 66600.00000 0 14302160.617 3182398.738 -20872839.155 10 0 60484 67500.00000 0 12024932.667 4534817.067 -22028754.057 10 0 60484 68400.00000 0 9758361.827 6117154.541 -22756636.469 10 0 60484 69300.00000 0 7565120.314 7899938.715 -23042435.824 10 0 60484 70200.00000 0 5502161.027 9842810.966 -22880691.260 10 0 60484 71100.00000 0 3618524.459 11896034.486 -22274630.460 10 0 60484 72000.00000 0 1953491.792 14002408.553 -21236100.630 10 0 60484 72900.00000 0 535159.786 16099509.699 -19785333.359 10 0 60484 73800.00000 0 -620504.688 18122166.790 -17950548.183 10 0 60484 74700.00000 0 -1510092.597 20005067.239 -15767402.589 10 0 60484 75600.00000 0 -2142646.973 21685386.151 -13278299.070 10 0 60484 76500.00000 0 -2539029.406 23105329.115 -10531562.422 10 0 60484 77400.00000 0 -2730786.775 24214482.849 -7580503.091 10 0 60484 78300.00000 0 -2758567.100 24971875.806 -4482384.486 10 0 60484 79200.00000 0 -2670152.148 25347662.880 -1297314.093 10 0 60484 80100.00000 0 -2518190.496 25324363.872 1912920.165 10 0 60484 81000.00000 0 -2357727.263 24897604.043 5086045.855 10 0 60484 81900.00000 0 -2243635.221 24076325.764 8160511.112 10 0 60484 82800.00000 0 -2228056.078 22882462.359 11076675.508 10 0 60484 83700.00000 0 -2357960.260 21350087.656 13777963.773 10 0 60484 84600.00000 0 -2672928.521 19524076.531 16211960.150 10 0 60484 85500.00000 0 -3203249.365 17458332.093 18331422.440 10 0 60485 0.00000 0 -3968412.953 15213653.251 20095196.230 10 0 60485 900.00000 0 -4976066.177 12855329.826 21469012.856 10 0 60485 1800.00000 0 -6221472.751 10450567.841 22426153.658 10 0 60485 2700.00000 0 -7687503.663 8065847.510 22947971.043 10 0 60485 3600.00000 0 -9345158.870 5764326.159 23024253.929 10 0 60485 4500.00000 0 -11154600.371 3603392.282 22653431.380 10 0 60485 5400.00000 0 -13066654.960 1632472.087 21842610.016 10 0 60485 6300.00000 0 -15024725.399 -108820.779 20607443.918 10 0 60485 7200.00000 0 -16967031.378 -1592115.688 18971838.867 10 0 60485 8100.00000 0 -18829087.652 -2801236.518 16967495.845 10 0 60485 9000.00000 0 -20546316.346 -3732634.860 14633301.792 10 0 60485 9900.00000 0 -22056684.372 -4395287.308 12014578.755 10 0 60485 10800.00000 0 -23303255.364 -4810061.705 9162205.407 10 0 60485 11700.00000 0 -24236548.690 -5008579.674 6131627.730 10 0 60485 12600.00000 0 -24816605.872 -5031624.154 2981778.102 10 0 60485 13500.00000 0 -25014676.779 -4927160.080 -226075.847 10 0 60485 14400.00000 0 -24814453.943 -4748052.967 -3429529.627 10 0 60485 15300.00000 0 -24212802.355 -4549583.101 -6566263.343 10 0 60485 16200.00000 0 -23219953.561 -4386861.801 -9575261.512 10 0 60485 17100.00000 0 -21859155.609 -4312260.439 -12398006.596 10 0 60485 18000.00000 0 -20165793.526 -4372962.186 -14979622.172 10 0 60485 18900.00000 0 -18186017.443 -4608741.160 -17269942.943 10 0 60485 19800.00000 0 -15974936.191 -5050063.687 -19224490.483 10 0 60485 20700.00000 0 -13594452.413 -5716592.568 -20805335.732 10 0 60485 21600.00000 0 -11110829.987 -6616157.927 -21981831.808 10 0 60485 22500.00000 0 -8592095.493 -7744238.386 -22731203.455 10 0 60485 23400.00000 0 -6105382.010 -9083974.661 -23038982.368 10 0 60485 24300.00000 0 -3714325.476 -10606715.299 -22899280.705 10 0 60485 25200.00000 0 -1476621.318 -12273071.972 -22314898.213 10 0 60485 26100.00000 0 558157.981 -14034440.438 -21297261.473 10 0 60485 27000.00000 0 2350394.831 -15834923.891 -19866196.913 10 0 60485 27900.00000 0 3871833.214 -17613578.697 -18049542.181 10 0 60485 28800.00000 0 5106503.061 -19306889.011 -15882603.538 10 0 60485 29700.00000 0 6051125.461 -20851367.237 -13407469.669 10 0 60485 30600.00000 0 6714983.435 -22186171.973 -10672195.043 10 0 60485 31500.00000 0 7119265.212 -23255634.206 -7729868.449 10 0 60485 32400.00000 0 7295909.032 -24011586.273 -4637584.559 10 0 60485 33300.00000 0 7285999.186 -24415396.201 -1455338.265 10 0 60485 34200.00000 0 7137781.814 -24439622.253 1755136.842 10 0 60485 35100.00000 0 6904384.843 -24069218.299 4931563.400 10 0 60485 36000.00000 0 6641338.788 -23302239.362 8012325.494 10 0 60485 36900.00000 0 6404003.444 -22150017.514 10937660.818 10 0 60485 37800.00000 0 6245009.374 -20636800.409 13650816.746 10 0 60485 38700.00000 0 6211822.387 -18798867.096 16099148.119 10 0 60485 39600.00000 0 6344533.985 -16683157.490 18235135.665 10 0 60485 40500.00000 0 6673971.271 -14345472.053 20017305.660 10 0 60485 41400.00000 0 7220206.372 -11848315.947 21411033.370 10 0 60485 42300.00000 0 7991528.796 -9258476.686 22389215.024 10 0 60485 43200.00000 0 8983924.817 -6644435.180 22932795.558 10 0 60485 44100.00000 0 10181086.875 -4073716.955 23031142.033 10 0 60485 45000.00000 0 11554953.910 -1610292.849 22682255.371 10 0 60485 45900.00000 0 13066761.378 687863.572 21892816.023 10 0 60485 46800.00000 0 14668558.400 2770961.020 20678062.161 10 0 60485 47700.00000 0 16305129.761 4599227.536 19061502.042 10 0 60485 48600.00000 0 17916243.342 6144323.624 17074465.315 10 0 60485 49500.00000 0 19439129.585 7390272.979 14755501.135 10 0 60485 50400.00000 0 20811089.392 8333872.363 12149634.016 10 0 60485 51300.00000 0 21972121.031 8984564.020 9307491.314 10 0 60485 52200.00000 0 22867455.376 9363776.616 6284318.933 10 0 60485 53100.00000 0 23449892.217 9503763.180 3138904.449 10 0 60485 54000.00000 0 23681838.495 9445985.947 -67571.129 10 0 60485 54900.00000 0 23536961.724 9239117.333 -3272730.004 10 0 60485 55800.00000 0 23001388.028 8936742.712 -6414218.528 10 0 60485 56700.00000 0 22074393.552 8594863.413 -9430927.723 10 0 60485 57600.00000 0 20768559.504 8269306.852 -12264188.734 10 0 60485 58500.00000 0 19109383.925 8013154.582 -14858919.076 10 0 60485 59400.00000 0 17134366.312 7874298.083 -17164696.816 10 0 60485 60300.00000 0 14891603.454 7893226.489 -19136741.478 10 0 60485 61200.00000 0 12437955.449 8101140.286 -20736782.570 10 0 60485 62100.00000 0 9836858.656 8518470.985 -21933799.150 10 0 60485 63000.00000 0 7155876.954 9153869.365 -22704616.628 10 0 60485 63900.00000 0 4464093.265 10003704.939 -23034349.864 10 0 60485 64800.00000 0 1829449.603 11052097.723 -22916684.757 10 0 60485 65700.00000 0 -683854.337 12271480.971 -22353993.582 10 0 60485 66600.00000 0 -3017796.742 13623671.313 -21357282.459 10 0 60485 67500.00000 0 -5122703.315 15061401.559 -19945972.428 10 0 60485 68400.00000 0 -6959062.108 16530252.120 -18147518.632 10 0 60485 69300.00000 0 -8498909.528 17970900.393 -15996875.054 10 0 60485 70200.00000 0 -9726731.386 19321594.129 -13535815.130 10 0 60485 71100.00000 0 -10639843.029 20520745.453 -10812121.188 10 0 60485 72000.00000 0 -11248234.259 21509537.002 -7878658.234 10 0 60485 72900.00000 0 -11573887.010 22234431.080 -4792349.818 10 0 60485 73800.00000 0 -11649595.781 22649476.655 -1613075.641 10 0 60485 74700.00000 0 -11517341.477 22718317.338 1597487.779 10 0 60485 75600.00000 0 -11226288.051 22415815.939 4777061.003 10 0 60485 76500.00000 0 -10830487.030 21729227.166 7863966.984 10 0 60485 77400.00000 0 -10386387.187 20658868.864 10798324.459 10 0 60485 78300.00000 0 -9950254.717 19218263.140 13523206.353 10 0 60485 79200.00000 0 -9575612.912 17433740.805 15985740.939 10 0 60485 80100.00000 0 -9310809.410 15343524.884 18138134.599 10 0 60485 81000.00000 0 -9196813.675 12996330.597 19938596.722 10 0 60485 81900.00000 0 -9265337.649 10449539.188 21352149.169 10 0 60485 82800.00000 0 -9537358.988 7767020.649 22351304.961 10 0 60485 83700.00000 0 -10022109.499 5016694.845 22916603.302 10 0 60485 84600.00000 0 -10716571.979 2267931.326 23036990.717 10 0 60485 85500.00000 0 -11605507.509 -411105.119 22710040.821 10 0 60486 0.00000 0 -12662013.019 -2956053.627 21942008.285 10 0 60486 900.00000 0 -13848587.491 -5308795.314 20747714.935 10 0 60486 1800.00000 0 -15118661.736 -7419626.127 19150270.632 10 0 60486 2700.00000 0 -16418530.481 -9249079.192 17180632.165 10 0 60486 3600.00000 0 -17689605.031 -10769317.720 14877008.790 10 0 60486 4500.00000 0 -18870892.933 -11965042.129 12284124.865 10 0 60486 5400.00000 0 -19901600.367 -12833873.654 9452353.366 10 0 60486 6300.00000 0 -20723747.587 -13386198.881 6436736.746 10 0 60486 7200.00000 0 -21284686.632 -13644482.351 3295914.175 10 0 60486 8100.00000 0 -21539414.404 -13642076.993 90976.337 10 0 60486 9000.00000 0 -21452582.550 -13421583.461 -3115729.409 10 0 60486 9900.00000 0 -21000118.331 -13032828.743 -6261819.359 10 0 60486 10800.00000 0 -20170387.113 -12530550.691 -9286094.629 10 0 60486 11700.00000 0 -18964846.553 -11971887.542 -12129738.463 10 0 60486 12600.00000 0 -17398164.276 -11413779.825 -14737465.499 10 0 60486 13500.00000 0 -15497793.516 -10910395.517 -17058600.039 10 0 60486 14400.00000 0 -13303024.266 -10510688.096 -19048062.031 10 0 60486 15300.00000 0 -10863549.492 -10256191.184 -20667241.527 10 0 60486 16200.00000 0 -8237606.317 -10179143.154 -21884744.942 10 0 60486 17100.00000 0 -5489769.651 -10301020.782 -22676999.137 10 0 60486 18000.00000 0 -2688490.076 -10631543.567 -23028702.283 10 0 60486 18900.00000 0 96521.875 -11168190.320 -22933113.542 10 0 60486 19800.00000 0 2796956.857 -11896248.061 -22392176.664 10 0 60486 20700.00000 0 5348503.419 -12789390.824 -21416475.744 10 0 60486 21600.00000 0 7693273.424 -13810763.899 -20025024.438 10 0 60486 22500.00000 0 9781956.597 -14914527.859 -18244893.005 10 0 60486 23400.00000 0 11575615.943 -16047797.559 -16110680.460 10 0 60486 24300.00000 0 13047050.788 -17152894.804 -13663842.029 10 0 60486 25200.00000 0 14181672.141 -18169820.229 -10951884.711 10 0 60486 26100.00000 0 14977855.345 -19038840.709 -8027446.365 10 0 60486 27000.00000 0 15446756.724 -19703083.693 -4947275.956 10 0 60486 27900.00000 0 15611603.253 -20111029.477 -1771134.508 10 0 60486 28800.00000 0 15506486.252 -20218796.555 1439361.969 10 0 60486 29700.00000 0 15174710.773 -19992123.837 4621935.218 10 0 60486 30600.00000 0 14666770.949 -19407966.059 7714850.075 10 0 60486 31500.00000 0 14038037.090 -18455634.921 10658109.009 10 0 60486 32400.00000 0 13346252.365 -17137437.435 13394612.799 10 0 60486 33300.00000 0 12648944.713 -15468783.900 15871265.027 10 0 60486 34200.00000 0 12000863.083 -13477760.074 18039999.168 10 0 60486 35100.00000 0 11451545.947 -11204180.347 19858708.712 10 0 60486 36000.00000 0 11043124.374 -8698160.238 21292062.669 10 0 60486 36900.00000 0 10808452.132 -6018266.457 22312190.979 10 0 60486 37800.00000 0 10769641.522 -3229320.250 22899226.834 10 0 60486 38700.00000 0 10937066.789 -399944.053 23041695.566 10 0 60486 39600.00000 0 11308877.415 2400047.814 22736742.491 10 0 60486 40500.00000 0 11871042.416 5102307.128 21990195.016 10 0 60486 41400.00000 0 12597924.542 7642549.010 20816457.331 10 0 60486 42300.00000 0 13453361.138 9962981.227 19238239.011 10 0 60486 43200.00000 0 14392207.056 12014465.134 17286122.004 10 0 60486 44100.00000 0 15362275.475 13758318.703 14997973.529 10 0 60486 45000.00000 0 16306595.427 15167686.760 12418215.518 10 0 60486 45900.00000 0 17165891.143 16228421.481 9596964.188 10 0 60486 46800.00000 0 17881178.595 16939436.624 6589056.065 10 0 60486 47700.00000 0 18396369.199 17312521.064 3452979.396 10 0 60486 48600.00000 0 18660770.019 17371620.093 249731.999 10 0 60486 49500.00000 0 18631373.900 17151615.481 -2958371.689 10 0 60486 50400.00000 0 18274841.675 16696656.741 -6108920.279 10 0 60486 51300.00000 0 17569091.593 16058115.080 -9140627.175 10 0 60486 52200.00000 0 16504427.823 15292247.623 -11994529.691 10 0 60486 53100.00000 0 15084159.463 14457671.752 -14615141.294 10 0 60486 54000.00000 0 13324683.226 13612757.269 -16951533.977 10 0 60486 54900.00000 0 11255025.699 12813047.354 -18958329.331 10 0 60486 55800.00000 0 8915863.931 12108817.730 -20596578.990 10 0 60486 56700.00000 0 6358065.040 11542877.233 -21834517.607 10 0 60486 57600.00000 0 3640805.527 11148702.400 -22648174.251 10 0 60486 58500.00000 0 829348.504 10948984.334 -23021831.039 10 0 60486 59400.00000 0 -2007429.041 10954648.416 -22948320.865 10 0 60486 60300.00000 0 -4799656.611 11164387.479 -22429159.208 10 0 60486 61200.00000 0 -7479129.974 11564727.383 -21474508.101 10 0 60486 62100.00000 0 -9981900.753 12130621.610 -20102973.445 10 0 60486 63000.00000 0 -12250689.318 12826549.421 -18341239.865 10 0 60486 63900.00000 0 -14237021.832 13608071.034 -16223550.290 10 0 60486 64800.00000 0 -15903003.861 14423774.262 -13791040.273 10 0 60486 65700.00000 0 -17222658.044 15217530.635 -11090939.730 10 0 60486 66600.00000 0 -18182771.332 15930966.075 -8175657.399 10 0 60486 67500.00000 0 -18783217.770 16506042.147 -5101765.503 10 0 60486 68400.00000 0 -19036744.530 16887639.202 -1928904.108 10 0 60486 69300.00000 0 -18968231.311 17026032.536 1281373.654 10 0 60486 70200.00000 0 -18613455.159 16879157.130 4466793.167 10 0 60486 71100.00000 0 -18017413.425 16414565.297 7565563.675 10 0 60486 72000.00000 0 -17232275.980 15610994.404 10517573.960 10 0 60486 72900.00000 0 -16315053.257 14459478.105 13265555.272 10 0 60486 73800.00000 0 -15325078.454 12963953.617 15756189.126 10 0 60486 74700.00000 0 -14321409.883 11141338.556 17941138.667 10 0 60486 75600.00000 0 -13360262.619 9021072.942 19777983.970 10 0 60486 76500.00000 0 -12492577.251 6644144.182 21231043.514 10 0 60486 77400.00000 0 -11761827.674 4061634.296 22272066.246 10 0 60486 78300.00000 0 -11202159.854 1332848.421 22880781.153 10 0 60486 79200.00000 0 -10836939.604 -1476899.048 23045293.831 10 0 60486 80100.00000 0 -10677770.403 -4298750.035 22762322.330 10 0 60486 81000.00000 0 -10724022.720 -7062918.938 22037267.469 10 0 60486 81900.00000 0 -10962894.951 -9701351.820 20884115.747 10 0 60486 82800.00000 0 -11370003.904 -12150318.975 19325176.056 10 0 60486 83700.00000 0 -11910480.538 -14352833.733 17390654.522 10 0 60486 84600.00000 0 -12540525.346 -16260797.262 15118074.818 10 0 60486 85500.00000 0 -13209358.234 -17836780.185 12551554.463 10 0 60487 0.00000 0 -13861480.822 -19055366.696 9740950.756 10 0 60487 900.00000 0 -14439155.898 -19904005.671 6740891.019 10 0 60487 1800.00000 0 -14884998.053 -20383331.740 3609709.766 10 0 60487 2700.00000 0 -15144566.456 -20506945.335 408308.691 10 0 60487 3600.00000 0 -15168848.300 -20300659.802 -2801034.088 10 0 60487 4500.00000 0 -14916527.127 -19801248.670 -5955882.985 10 0 60487 5400.00000 0 -14355938.853 -19054746.722 -8994867.214 10 0 60487 6300.00000 0 -13466631.640 -18114377.516 -11858881.646 10 0 60487 7200.00000 0 -12240462.638 -17038195.920 -14492241.977 10 0 60487 8100.00000 0 -10682184.373 -15886546.144 -16843771.095 10 0 60487 9000.00000 0 -8809495.270 -14719443.328 -18867795.157 10 0 60487 9900.00000 0 -6652551.541 -13593989.703 -20525029.907 10 0 60487 10800.00000 0 -4252960.340 -12561934.422 -21783340.280 10 0 60487 11700.00000 0 -1662295.849 -11667479.731 -22618359.056 10 0 60487 12600.00000 0 1059800.164 -10945425.373 -23013953.207 10 0 60487 13500.00000 0 3847854.608 -10419728.509 -22962529.682 10 0 60487 14400.00000 0 6633043.645 -10102538.816 -22465175.449 10 0 60487 15300.00000 0 9345815.048 -9993748.292 -21531629.727 10 0 60487 16200.00000 0 11918544.157 -10081073.674 -20180089.429 10 0 60487 17100.00000 0 14288113.998 -10340667.094 -18436851.873 10 0 60487 18000.00000 0 16398313.284 -10738228.535 -16335801.805 10 0 60487 18900.00000 0 18201953.672 -11230572.671 -13917752.583 10 0 60487 19800.00000 0 19662619.267 -11767583.752 -11229654.126 10 0 60487 20700.00000 0 20755976.545 -12294475.905 -8323682.759 10 0 60487 21600.00000 0 21470591.177 -12754263.446 -5256230.363 10 0 60487 22500.00000 0 21808218.679 -13090336.960 -2086812.234 10 0 60487 23400.00000 0 21783557.701 -13249036.350 1123085.274 10 0 60487 24300.00000 0 21423477.200 -13182112.223 4311195.041 10 0 60487 25200.00000 0 20765750.669 -12848971.505 7415674.375 10 0 60487 26100.00000 0 19857351.162 -12218612.268 10376301.711 10 0 60487 27000.00000 0 18752379.141 -11271165.693 13135641.697 10 0 60487 27900.00000 0 17509710.419 -9998979.538 15640156.222 10 0 60487 28800.00000 0 16190463.059 -8407196.626 17841240.040 10 0 60487 29700.00000 0 14855389.450 -6513802.906 19696161.236 10 0 60487 30600.00000 0 13562302.792 -4349141.689 21168888.691 10 0 60487 31500.00000 0 12363645.612 -1954912.855 22230790.830 10 0 60487 32400.00000 0 11304301.893 617302.834 22861192.452 10 0 60487 33300.00000 0 10419744.216 3307934.494 23047779.019 10 0 60487 34200.00000 0 9734593.292 6051649.856 22786840.530 10 0 60487 35100.00000 0 9261650.148 8779830.769 22083350.050 10 0 60487 36000.00000 0 9001441.514 11423193.866 20950874.874 10 0 60487 36900.00000 0 8942297.594 13914448.442 19411321.400 10 0 60487 37800.00000 0 9060959.142 16190881.750 17494517.840 10 0 60487 38700.00000 0 9323688.485 18196764.549 15237642.004 10 0 60487 39600.00000 0 9687837.896 19885476.825 12684504.466 10 0 60487 40500.00000 0 10103809.175 21221264.993 9884700.400 10 0 60487 41400.00000 0 10517321.561 22180557.028 6892646.122 10 0 60487 42300.00000 0 10871891.721 22752780.368 3766519.034 10 0 60487 43200.00000 0 11111420.232 22940648.314 567121.795 10 0 60487 44100.00000 0 11182774.204 22759903.092 -2643306.659 10 0 60487 45000.00000 0 11038255.606 22238526.799 -5802309.260 10 0 60487 45900.00000 0 10637849.609 21415454.111 -8848433.533 10 0 60487 46800.00000 0 9951156.584 20338841.786 -11722434.131 10 0 60487 47700.00000 0 8958924.877 19063968.850 -14368430.879 10 0 60487 48600.00000 0 7654118.569 17650856.883 -16734999.143 10 0 60487 49500.00000 0 6042474.216 16161711.481 -18776170.924 10 0 60487 50400.00000 0 4142522.361 14658293.270 -20452327.093 10 0 60487 51300.00000 0 1985072.208 13199329.393 -21730963.664 10 0 60487 52200.00000 0 -387819.538 11838074.256 -22587317.724 10 0 60487 53100.00000 0 -2924353.065 10620121.640 -23004841.506 10 0 60487 54000.00000 0 -5564900.813 9581559.264 -22975516.212 10 0 60487 54900.00000 0 -8244254.558 8747542.226 -22500000.240 10 0 60487 55800.00000 0 -10894111.267 8131343.993 -21587609.628 10 0 60487 56700.00000 0 -13445695.047 7733923.409 -20256131.593 10 0 60487 57600.00000 0 -15832406.972 7544024.657 -18531475.081 10 0 60487 58500.00000 0 -17992393.421 7538804.747 -16447165.237 10 0 60487 59400.00000 0 -19870926.978 7684961.153 -14043691.525 10 0 60487 60300.00000 0 -21422501.716 7940311.327 -11367721.928 10 0 60487 61200.00000 0 -22612556.408 8255756.939 -8471198.255 10 0 60487 62100.00000 0 -23418754.672 8577549.613 -5410329.845 10 0 60487 63000.00000 0 -23831769.419 8849762.275 -2244504.953 10 0 60487 63900.00000 0 -23855539.550 9016861.572 964859.161 10 0 60487 64800.00000 0 -23506988.886 9026272.555 4155505.221 10 0 60487 65700.00000 0 -22815219.699 8830827.107 7265540.992 10 0 60487 66600.00000 0 -21820215.166 8390992.449 10234636.983 10 0 60487 67500.00000 0 -20571105.507 7676785.264 13005193.672 10 0 60487 68400.00000 0 -19124070.741 6669290.158 15523455.740 10 0 60487 69300.00000 0 -17539968.017 5361717.680 17740551.896 10 0 60487 70200.00000 0 -15881782.864 3759956.424 19613440.450 10 0 60487 71100.00000 0 -14212010.828 1882594.688 21105742.712 10 0 60487 72000.00000 0 -12590078.742 -239590.649 22188448.364 10 0 60487 72900.00000 0 -11069913.070 -2564658.348 22840479.510 10 0 60487 73800.00000 0 -9697756.537 -5040999.115 23049102.640 10 0 60487 74700.00000 0 -8510323.923 -7609243.335 22810180.519 10 0 60487 75600.00000 0 -7533373.741 -10204502.413 22128258.904 10 0 60487 76500.00000 0 -6780755.277 -12758851.924 21016485.958 10 0 60487 77400.00000 0 -6253970.695 -15203954.373 19496365.246 10 0 60487 78300.00000 0 -5942270.418 -17473713.268 17597346.326 10 0 60487 79200.00000 0 -5823277.696 -19506848.509 15356259.991 10 0 60487 80100.00000 0 -5864115.976 -21249285.874 12816608.327 10 0 60487 81000.00000 0 -6022991.424 -22656260.808 10027722.733 10 0 60487 81900.00000 0 -6251163.501 -23694048.331 7043805.782 10 0 60487 82800.00000 0 -6495219.869 -24341246.283 3922875.502 10 0 60487 83700.00000 0 -6699558.711 -24589557.835 725632.786 10 0 60487 84600.00000 0 -6808972.458 -24444040.251 -2485725.516 10 0 60487 85500.00000 0 -6771222.431 -23922809.504 -5648723.925 99